パンスターズ彗星

C/2019 Y5 ( PanSTARRS )

English version
Home page
Updated on August 14, 2021

---------------------------------------------------------------------

・ プロフィール

発見日 2019年12月28日
発見光度 21.4等
発見者 Pan-STARRS 1 telescope (Haleakala)

・ 軌道要素

Epoch 2019 Aug. 25.0 TT = JDT 2458720.5                                         
T 2019 Aug. 18.15031 TT                                 Rudenko                 
q   4.9145014            (2000.0)            P               Q                  
z  +0.0013429      Peri.  303.50110     +0.42317373     +0.46197233             
 +/-0.0000012      Node    51.77149     +0.66792578     +0.42220177             
e   0.9934005      Incl.   82.84178     -0.61220842     +0.77995335             
From 67 observations 2019 Sept. 11-2021 July 10, mean residual 0".4.            

・ 光度変化

        m1 = 10.5 + 5 logΔ + 10.0 log r

---------------------------------------------------------------------

軌道要素はM.P.E.C. 2021-P47に掲載されたものです。
光度グラフはComet for Windowsで作成したものです。

---------------------------------------------------------------------

Copyright(C) Seiichi Yoshida (comet@aerith.net). All rights reserved.